Torna al catalogo

SUPERBIRD C

AttivoComunicazioniGEO
NORAD 24880·PAYLOAD·🇯🇵 Japan

Lanciato Jul 28, 1997 da Cape Canaveral Space Force Station

Loading…

TLE

AggiornatoSource: Space-Track

Epoca: Sep 13, 2026, 01:44 UTC

1 24880U 97036A   26256.07290655 -.00000112  00000-0  00000-0 0  9997
2 24880  12.2173  33.1189 0004997 334.9068  25.1130  0.99073933 65744

Traccia SUPERBIRD C in tempo reale con AllMySat

Download on the App Store